Tracking 20942 objects as of 9-Jul-2020
HD Live streaming from Space Station
objects crossing your sky now

COSMOS 1174

Track COSMOS 1174 now!
10-day predictions
COSMOS 1174 is classified as:


NORAD ID: 11765
Int'l Code: 1980-030A
Perigee: 374.9 km
Apogee: 1,158.0 km
Inclination: 66.1 °
Period: 100.0 minutes
Semi major axis: 7137 km
RCS: 4.5129 m2 (large)
Launch date: April 18, 1980
Source: Commonwealth of Independent States (former USSR) (CIS)
Launch site: TYURATAM MISSILE AND SPACE COMPLEX (TTMTR)
aabbcc
Your satellite tracking list
Your tracking list is empty




NASA's NSSDC Master Catalog

Two Line Element Set (TLE):
1 11765U 80030A   20191.46468847 +.00000397 +00000-0 +29793-4 0  9994
2 11765 066.0860 110.2606 0548555 353.8778 005.5787 14.39756602065249
Source of the keplerian elements: AFSPC